When you browse on this site, cookies collect data to enhance your experience and personalize the content and advertising you see.
Visit our Privacy Policy to learn more. By continuing to use the site, you agree to this use of cookies and data.
  • In Lithuania
  • List of Countries
  • For 7 days
  • Water Temperature
  • Satellite Maps
  • Weather Map
  • Weather Widgets
  • user-avatar
    Login

    Hourly Weather Hriply

    Today, 21 May, Tuesday

    Time Temperature Precipitation Wind Pressure Humidity
    00:00 +16°C° 0 mm 2 mps 743 mmHg 77%
    01:00 +16°C° 0 mm 2 mps 743 mmHg 77%
    02:00 +15°C° 0 mm 2 mps 743 mmHg 77%
    03:00 +15°C° 0 mm 2 mps 742 mmHg 77%
    04:00 +15°C° 0 mm 2 mps 742 mmHg 77%
    05:00 +15°C° 0 mm 2 mps 742 mmHg 77%
    06:00 +17°C° 0 mm 2 mps 742 mmHg 69%
    07:00 +20°C° 0 mm 3 mps 742 mmHg 61%
    08:00 +22°C° 0 mm 3 mps 742 mmHg 52%
    09:00 +24°C° 0 mm 3 mps 742 mmHg 47%
    10:00 +25°C° 0 mm 4 mps 742 mmHg 42%
    11:00 +26°C° 0 mm 4 mps 741 mmHg 37%
    12:00 +26°C° 0 mm 4 mps 741 mmHg 36%
    13:00 +26°C° 0 mm 4 mps 741 mmHg 35%
    14:00 +27°C° 0 mm 4 mps 740 mmHg 34%
    15:00 +26°C° 0 mm 3 mps 740 mmHg 36%
    16:00 +26°C° 0 mm 3 mps 740 mmHg 39%
    17:00 +25°C° 0 mm 2 mps 739 mmHg 41%
    18:00 +23°C° 0 mm 2 mps 739 mmHg 49%
    19:00 +20°C° 0 mm 2 mps 739 mmHg 57%
    20:00 +19°C° 0 mm 1 mps 738 mmHg 65%
    21:00 +17°C° 0 mm 2 mps 738 mmHg 67%
    22:00 +16°C° 0 mm 2 mps 738 mmHg 70%
    23:00 +15°C° 0 mm 2 mps 738 mmHg 72%

    Tomorrow, 22 May, Wednesday

    Time Temperature Precipitation Wind Pressure Humidity
    00:00 +15°C° 0 mm 2 mps 738 mmHg 74%
    01:00 +15°C° 0 mm 2 mps 738 mmHg 76%
    02:00 +15°C° 0 mm 2 mps 738 mmHg 78%
    03:00 +15°C° 0 mm 2 mps 737 mmHg 80%
    04:00 +15°C° 0 mm 2 mps 737 mmHg 81%
    05:00 +16°C° 0 mm 3 mps 737 mmHg 82%
    06:00 +17°C° 0 mm 3 mps 737 mmHg 78%
    07:00 +18°C° 0 mm 3 mps 737 mmHg 75%
    08:00 +20°C° 0 mm 3 mps 737 mmHg 71%
    09:00 +20°C° 1.3 mm 3 mps 736 mmHg 70%
    10:00 +21°C° 1.3 mm 3 mps 736 mmHg 69%
    11:00 +22°C° 1.3 mm 3 mps 736 mmHg 68%
    12:00 +21°C° 1.7 mm 3 mps 735 mmHg 73%
    13:00 +20°C° 1.7 mm 2 mps 735 mmHg 78%
    14:00 +20°C° 1.7 mm 2 mps 735 mmHg 82%
    15:00 +20°C° 0 mm 2 mps 735 mmHg 77%
    16:00 +21°C° 0 mm 2 mps 734 mmHg 73%
    17:00 +21°C° 0 mm 2 mps 734 mmHg 68%
    18:00 +21°C° 0.4 mm 1 mps 734 mmHg 75%
    19:00 +19°C° 0.4 mm 1 mps 734 mmHg 82%
    20:00 +18°C° 0.4 mm 1 mps 734 mmHg 89%
    21:00 +16°C° 0.6 mm 1 mps 734 mmHg 91%
    22:00 +15°C° 0.6 mm 1 mps 734 mmHg 93%
    23:00 +15°C° 0.6 mm 1 mps 734 mmHg 95%

    Day after tomorrow, 23 May, Thursday

    Time Temperature Precipitation Wind Pressure Humidity
    00:00 +14°C° 0 mm 1 mps 734 mmHg 96%
    01:00 +14°C° 0 mm 1 mps 734 mmHg 97%
    02:00 +13°C° 0 mm 1 mps 734 mmHg 97%
    03:00 +13°C° 0 mm 2 mps 734 mmHg 97%
    04:00 +13°C° 0 mm 2 mps 734 mmHg 97%
    05:00 +12°C° 0 mm 3 mps 735 mmHg 97%
    06:00 +12°C° 0 mm 3 mps 735 mmHg 96%
    07:00 +12°C° 0 mm 3 mps 735 mmHg 94%
    08:00 +11°C° 0 mm 3 mps 735 mmHg 93%
    09:00 +12°C° 0 mm 3 mps 736 mmHg 89%
    10:00 +13°C° 0 mm 3 mps 736 mmHg 85%
    11:00 +13°C° 0 mm 3 mps 736 mmHg 81%
    12:00 +16°C° 0 mm 3 mps 736 mmHg 71%
    13:00 +18°C° 0 mm 2 mps 736 mmHg 61%
    14:00 +20°C° 0 mm 2 mps 737 mmHg 51%
    15:00 +19°C° 0 mm 3 mps 737 mmHg 50%
    16:00 +19°C° 0 mm 3 mps 737 mmHg 50%
    17:00 +19°C° 0 mm 3 mps 737 mmHg 50%
    18:00 +17°C° 0 mm 3 mps 737 mmHg 57%
    19:00 +15°C° 0 mm 2 mps 737 mmHg 64%
    20:00 +13°C° 0 mm 2 mps 737 mmHg 71%
    21:00 +12°C° 0 mm 2 mps 737 mmHg 73%
    22:00 +10°C° 0 mm 3 mps 738 mmHg 74%
    23:00 +9°C° 0 mm 3 mps 738 mmHg 76%

    24 May, Friday

    Time Temperature Precipitation Wind Pressure Humidity
    00:00 +8°C° 0 mm 3 mps 738 mmHg 76%
    01:00 +8°C° 0 mm 3 mps 738 mmHg 76%
    02:00 +7°C° 0 mm 3 mps 738 mmHg 76%
    03:00 +7°C° 0 mm 3 mps 738 mmHg 71%
    04:00 +7°C° 0 mm 3 mps 738 mmHg 66%
    05:00 +7°C° 0 mm 3 mps 738 mmHg 61%
    06:00 +9°C° 0 mm 3 mps 738 mmHg 58%
    07:00 +11°C° 0 mm 3 mps 738 mmHg 56%
    08:00 +13°C° 0 mm 3 mps 738 mmHg 54%
    09:00 +16°C° 0 mm 3 mps 737 mmHg 52%
    10:00 +17°C° 0 mm 3 mps 737 mmHg 51%
    11:00 +19°C° 0 mm 3 mps 737 mmHg 50%
    12:00 +20°C° 0 mm 3 mps 736 mmHg 51%
    13:00 +20°C° 0 mm 4 mps 736 mmHg 52%
    14:00 +21°C° 0 mm 4 mps 735 mmHg 53%
    15:00 +20°C° 0 mm 3 mps 735 mmHg 57%
    16:00 +20°C° 0 mm 3 mps 735 mmHg 60%
    17:00 +19°C° 0 mm 3 mps 734 mmHg 64%
    18:00 +19°C° 0 mm 3 mps 734 mmHg 68%
    19:00 +18°C° 0 mm 3 mps 734 mmHg 71%
    20:00 +17°C° 0 mm 3 mps 734 mmHg 75%
    21:00 +16°C° 0.6 mm 3 mps 733 mmHg 80%
    22:00 +14°C° 0.6 mm 3 mps 733 mmHg 85%
    23:00 +14°C° 0.6 mm 3 mps 733 mmHg 90%

    25 May, Saturday

    Time Temperature Precipitation Wind Pressure Humidity
    00:00 +13°C° 0.6 mm 3 mps 733 mmHg 93%
    01:00 +13°C° 0.6 mm 3 mps 732 mmHg 95%
    02:00 +13°C° 0.6 mm 3 mps 732 mmHg 98%
    03:00 +13°C° 0 mm 3 mps 732 mmHg 97%
    04:00 +14°C° 0 mm 3 mps 732 mmHg 97%
    05:00 +14°C° 0 mm 3 mps 732 mmHg 97%
    06:00 +15°C° 0.3 mm 2 mps 732 mmHg 95%
    07:00 +16°C° 0.3 mm 1 mps 731 mmHg 94%
    08:00 +18°C° 0.3 mm 1 mps 731 mmHg 93%
    09:00 +18°C° 1.5 mm 1 mps 731 mmHg 89%
    10:00 +19°C° 1.5 mm 1 mps 731 mmHg 86%
    11:00 +20°C° 1.5 mm 1 mps 731 mmHg 83%
    12:00 +20°C° 0.7 mm 1 mps 731 mmHg 83%
    13:00 +20°C° 0.7 mm 1 mps 730 mmHg 83%
    14:00 +19°C° 0.7 mm 2 mps 730 mmHg 83%
    15:00 +18°C° 0.6 mm 2 mps 730 mmHg 84%
    16:00 +18°C° 0.6 mm 2 mps 730 mmHg 84%
    17:00 +18°C° 0.6 mm 2 mps 729 mmHg 85%
    18:00 +17°C° 0.2 mm 2 mps 729 mmHg 87%
    19:00 +16°C° 0.2 mm 2 mps 729 mmHg 90%
    20:00 +15°C° 0.2 mm 2 mps 729 mmHg 92%
    21:00 +14°C° 0.1 mm 2 mps 729 mmHg 93%
    22:00 +13°C° 0.1 mm 1 mps 729 mmHg 94%
    23:00 +12°C° 0.1 mm 1 mps 729 mmHg 95%

    26 May, Sunday

    Time Temperature Precipitation Wind Pressure Humidity
    00:00 +12°C° 0 mm 1 mps 729 mmHg 95%
    01:00 +10°C° 0 mm 2 mps 729 mmHg 95%
    02:00 +9°C° 0 mm 2 mps 729 mmHg 95%
    03:00 +10°C° 0 mm 2 mps 729 mmHg 92%
    04:00 +10°C° 0 mm 2 mps 729 mmHg 90%
    05:00 +10°C° 0 mm 2 mps 730 mmHg 87%
    06:00 +12°C° 0 mm 3 mps 730 mmHg 81%
    07:00 +13°C° 0 mm 3 mps 730 mmHg 76%
    08:00 +16°C° 0 mm 3 mps 730 mmHg 71%
    09:00 +15°C° 0.1 mm 4 mps 730 mmHg 66%
    10:00 +17°C° 0.1 mm 4 mps 730 mmHg 61%
    11:00 +17°C° 0.1 mm 5 mps 730 mmHg 56%
    12:00 +16°C° 0 mm 5 mps 730 mmHg 57%
    13:00 +16°C° 0 mm 5 mps 730 mmHg 57%
    14:00 +16°C° 0 mm 5 mps 731 mmHg 58%
    15:00 +15°C° 0 mm 4 mps 731 mmHg 60%
    16:00 +14°C° 0 mm 4 mps 731 mmHg 62%
    17:00 +14°C° 0 mm 4 mps 731 mmHg 63%
    18:00 +12°C° 0 mm 3 mps 731 mmHg 69%
    19:00 +12°C° 0 mm 2 mps 731 mmHg 75%
    20:00 +10°C° 0 mm 2 mps 731 mmHg 82%
    21:00 +9°C° 0 mm 2 mps 731 mmHg 84%
    22:00 +9°C° 0 mm 2 mps 732 mmHg 86%
    23:00 +8°C° 0 mm 3 mps 732 mmHg 88%
    Show more